• In Moldova, Republic
  • List of Countries
  • For 7 days
  • Water Temperature
  • Satellite Maps
  • Weather Map
  • Weather Widgets
  • user-avatar
    Login

    Hourly Weather Shusha

    Today, 28 June, Wednesday

    Time Temperature Precipitation Wind Pressure Humidity
    00:00 +16°C° 0 mm 1 mps 659 mmHg 85%
    01:00 +16°C° 0 mm 1 mps 658 mmHg 86%
    02:00 +16°C° 0 mm 1 mps 658 mmHg 87%
    03:00 +15°C° 0 mm 1 mps 658 mmHg 88%
    04:00 +18°C° 0 mm 1 mps 659 mmHg 85%
    05:00 +19°C° 0 mm 1 mps 659 mmHg 81%
    06:00 +19°C° 0 mm 0 mps 660 mmHg 78%
    07:00 +23°C° 0 mm 1 mps 660 mmHg 70%
    08:00 +24°C° 0 mm 1 mps 660 mmHg 61%
    09:00 +26°C° 0 mm 2 mps 660 mmHg 53%
    10:00 +27°C° 0 mm 2 mps 660 mmHg 50%
    11:00 +29°C° 0 mm 3 mps 660 mmHg 46%
    12:00 +30°C° 0 mm 3 mps 660 mmHg 43%
    13:00 +30°C° 0.1 mm 3 mps 660 mmHg 43%
    14:00 +30°C° 0.1 mm 3 mps 659 mmHg 43%
    15:00 +31°C° 0.1 mm 3 mps 659 mmHg 42%
    16:00 +30°C° 0.1 mm 3 mps 659 mmHg 45%
    17:00 +29°C° 0.1 mm 3 mps 658 mmHg 48%
    18:00 +28°C° 0.1 mm 3 mps 658 mmHg 51%
    19:00 +25°C° 0.3 mm 2 mps 658 mmHg 58%
    20:00 +23°C° 0.3 mm 2 mps 658 mmHg 66%
    21:00 +20°C° 0.3 mm 1 mps 657 mmHg 73%
    22:00 +20°C° 0.2 mm 1 mps 657 mmHg 74%
    23:00 +19°C° 0.2 mm 1 mps 657 mmHg 76%

    Tomorrow, 29 June, Thursday

    Time Temperature Precipitation Wind Pressure Humidity
    00:00 +19°C° 0.2 mm 1 mps 657 mmHg 77%
    01:00 +18°C° 0 mm 1 mps 657 mmHg 78%
    02:00 +18°C° 0 mm 1 mps 657 mmHg 78%
    03:00 +16°C° 0 mm 1 mps 657 mmHg 79%
    04:00 +19°C° 0 mm 1 mps 658 mmHg 75%
    05:00 +20°C° 0 mm 1 mps 658 mmHg 70%
    06:00 +21°C° 0 mm 1 mps 659 mmHg 66%
    07:00 +23°C° 0 mm 1 mps 659 mmHg 57%
    08:00 +25°C° 0 mm 1 mps 659 mmHg 49%
    09:00 +26°C° 0 mm 2 mps 660 mmHg 40%
    10:00 +27°C° 0.1 mm 2 mps 660 mmHg 37%
    11:00 +29°C° 0.1 mm 2 mps 660 mmHg 34%
    12:00 +30°C° 0.1 mm 2 mps 660 mmHg 31%
    13:00 +30°C° 0.1 mm 2 mps 659 mmHg 30%
    14:00 +30°C° 0.1 mm 3 mps 659 mmHg 29%
    15:00 +31°C° 0.1 mm 3 mps 659 mmHg 29%
    16:00 +30°C° 0.1 mm 2 mps 659 mmHg 31%
    17:00 +29°C° 0.1 mm 2 mps 658 mmHg 33%
    18:00 +28°C° 0.1 mm 2 mps 658 mmHg 35%
    19:00 +25°C° 0 mm 2 mps 658 mmHg 40%
    20:00 +22°C° 0 mm 1 mps 657 mmHg 45%
    21:00 +20°C° 0 mm 1 mps 657 mmHg 50%
    22:00 +19°C° 0 mm 1 mps 657 mmHg 49%
    23:00 +18°C° 0 mm 2 mps 657 mmHg 49%

    Day after tomorrow, 30 June, Friday

    Time Temperature Precipitation Wind Pressure Humidity
    00:00 +18°C° 0 mm 2 mps 657 mmHg 49%
    01:00 +17°C° 0 mm 2 mps 657 mmHg 48%
    02:00 +17°C° 0 mm 2 mps 657 mmHg 48%
    03:00 +17°C° 0 mm 2 mps 657 mmHg 47%
    04:00 +18°C° 0 mm 2 mps 658 mmHg 46%
    05:00 +19°C° 0 mm 2 mps 658 mmHg 45%
    06:00 +20°C° 0 mm 2 mps 658 mmHg 44%
    07:00 +23°C° 0 mm 2 mps 659 mmHg 37%
    08:00 +25°C° 0 mm 2 mps 660 mmHg 29%
    09:00 +27°C° 0 mm 2 mps 660 mmHg 22%
    10:00 +28°C° 0 mm 2 mps 660 mmHg 21%
    11:00 +29°C° 0 mm 2 mps 660 mmHg 20%
    12:00 +30°C° 0 mm 3 mps 660 mmHg 19%
    13:00 +30°C° 0 mm 3 mps 660 mmHg 20%
    14:00 +30°C° 0 mm 3 mps 660 mmHg 20%
    15:00 +30°C° 0 mm 3 mps 660 mmHg 20%
    16:00 +30°C° 0 mm 3 mps 660 mmHg 23%
    17:00 +29°C° 0 mm 3 mps 660 mmHg 26%
    18:00 +28°C° 0 mm 2 mps 660 mmHg 28%
    19:00 +25°C° 0 mm 2 mps 659 mmHg 32%
    20:00 +21°C° 0 mm 2 mps 659 mmHg 36%
    21:00 +19°C° 0 mm 2 mps 659 mmHg 39%
    22:00 +18°C° 0 mm 2 mps 659 mmHg 39%
    23:00 +18°C° 0 mm 2 mps 659 mmHg 39%

    1 July, Saturday

    Time Temperature Precipitation Wind Pressure Humidity
    00:00 +18°C° 0 mm 2 mps 659 mmHg 39%
    01:00 +17°C° 0 mm 2 mps 659 mmHg 39%
    02:00 +17°C° 0 mm 2 mps 659 mmHg 39%
    03:00 +16°C° 0 mm 3 mps 659 mmHg 40%
    04:00 +17°C° 0 mm 3 mps 660 mmHg 39%
    05:00 +18°C° 0 mm 3 mps 660 mmHg 38%
    06:00 +19°C° 0 mm 2 mps 661 mmHg 37%
    07:00 +21°C° 0 mm 2 mps 661 mmHg 33%
    08:00 +24°C° 0 mm 2 mps 662 mmHg 28%
    09:00 +27°C° 0 mm 1 mps 663 mmHg 24%
    10:00 +28°C° 0 mm 2 mps 662 mmHg 23%
    11:00 +29°C° 0 mm 2 mps 662 mmHg 22%
    12:00 +30°C° 0 mm 3 mps 662 mmHg 21%
    13:00 +30°C° 0 mm 3 mps 662 mmHg 21%
    14:00 +30°C° 0 mm 3 mps 662 mmHg 21%
    15:00 +32°C° 0 mm 4 mps 662 mmHg 21%
    16:00 +30°C° 0 mm 4 mps 662 mmHg 24%
    17:00 +29°C° 0 mm 4 mps 662 mmHg 26%
    18:00 +28°C° 0 mm 3 mps 661 mmHg 29%
    19:00 +26°C° 0 mm 3 mps 661 mmHg 34%
    20:00 +23°C° 0 mm 2 mps 661 mmHg 38%
    21:00 +20°C° 0 mm 1 mps 660 mmHg 43%
    22:00 +18°C° 0 mm 2 mps 660 mmHg 42%
    23:00 +18°C° 0 mm 2 mps 660 mmHg 41%

    2 July, Sunday

    Time Temperature Precipitation Wind Pressure Humidity
    00:00 +18°C° 0 mm 2 mps 660 mmHg 40%
    01:00 +18°C° 0 mm 2 mps 660 mmHg 39%
    02:00 +17°C° 0 mm 2 mps 660 mmHg 39%
    03:00 +17°C° 0 mm 2 mps 660 mmHg 38%
    04:00 +18°C° 0 mm 2 mps 660 mmHg 38%
    05:00 +19°C° 0 mm 2 mps 660 mmHg 39%
    06:00 +19°C° 0 mm 2 mps 661 mmHg 39%
    07:00 +23°C° 0 mm 2 mps 661 mmHg 34%
    08:00 +26°C° 0 mm 1 mps 662 mmHg 29%
    09:00 +28°C° 0 mm 1 mps 662 mmHg 24%
    10:00 +29°C° 0 mm 2 mps 662 mmHg 23%
    11:00 +30°C° 0 mm 2 mps 662 mmHg 22%
    12:00 +31°C° 0 mm 3 mps 661 mmHg 21%
    13:00 +33°C° 0 mm 3 mps 661 mmHg 22%
    14:00 +33°C° 0 mm 3 mps 661 mmHg 22%
    15:00 +33°C° 0 mm 3 mps 660 mmHg 22%
    16:00 +31°C° 0 mm 3 mps 660 mmHg 25%
    17:00 +30°C° 0 mm 2 mps 660 mmHg 28%
    18:00 +30°C° 0 mm 2 mps 660 mmHg 31%
    19:00 +27°C° 0.1 mm 2 mps 660 mmHg 35%
    20:00 +24°C° 0.1 mm 2 mps 659 mmHg 39%
    21:00 +21°C° 0.1 mm 2 mps 659 mmHg 42%
    22:00 +20°C° 0 mm 2 mps 659 mmHg 44%
    23:00 +19°C° 0 mm 2 mps 658 mmHg 45%

    3 July, Monday

    Time Temperature Precipitation Wind Pressure Humidity
    00:00 +19°C° 0 mm 2 mps 658 mmHg 46%
    01:00 +18°C° 0 mm 2 mps 658 mmHg 47%
    02:00 +18°C° 0 mm 2 mps 658 mmHg 48%
    03:00 +17°C° 0 mm 2 mps 657 mmHg 49%
    04:00 +19°C° 0 mm 2 mps 658 mmHg 48%
    05:00 +21°C° 0 mm 1 mps 658 mmHg 47%
    06:00 +22°C° 0 mm 1 mps 658 mmHg 46%
    07:00 +24°C° 0 mm 1 mps 659 mmHg 40%
    08:00 +26°C° 0 mm 2 mps 659 mmHg 34%
    09:00 +29°C° 0 mm 2 mps 660 mmHg 29%
    10:00 +30°C° 0 mm 2 mps 659 mmHg 27%
    11:00 +31°C° 0 mm 2 mps 659 mmHg 25%
    12:00 +32°C° 0 mm 2 mps 659 mmHg 24%
    13:00 +32°C° 0 mm 2 mps 659 mmHg 24%
    14:00 +34°C° 0 mm 2 mps 658 mmHg 24%
    15:00 +34°C° 0 mm 2 mps 658 mmHg 24%
    16:00 +32°C° 0.1 mm 2 mps 658 mmHg 26%
    17:00 +32°C° 0.1 mm 2 mps 657 mmHg 29%
    18:00 +31°C° 0.1 mm 1 mps 657 mmHg 32%
    19:00 +28°C° 0.1 mm 1 mps 657 mmHg 37%
    20:00 +25°C° 0.1 mm 1 mps 656 mmHg 43%
    21:00 +21°C° 0.1 mm 2 mps 656 mmHg 49%
    22:00 +21°C° 0 mm 2 mps 656 mmHg 48%
    23:00 +21°C° 0 mm 2 mps 656 mmHg 48%
    Show more